When you browse on this site, cookies collect data to enhance your experience and personalize the content and advertising you see.
Visit our Privacy Policy to learn more. By continuing to use the site, you agree to this use of cookies and data.
  • In United Kingdom
  • List of Countries
  • For 7 days
  • Water Temperature
  • Weather Map
  • Weather Widgets
  • user-avatar
    Login

    Hourly Weather Tadzhura

    Today, 18 September, Wednesday

    Time Temperature Precipitation Wind Pressure Humidity
    00:00 +37°C° 0.1 mm 2 mps 752 mmHg 51%
    01:00 +37°C° 0.6 mm 2 mps 751 mmHg 51%
    02:00 +37°C° 0.6 mm 3 mps 751 mmHg 52%
    03:00 +36°C° 0.6 mm 3 mps 751 mmHg 53%
    04:00 +36°C° 0.1 mm 3 mps 751 mmHg 54%
    05:00 +36°C° 0.1 mm 3 mps 752 mmHg 55%
    06:00 +35°C° 0.1 mm 4 mps 752 mmHg 56%
    07:00 +36°C° 0.1 mm 4 mps 753 mmHg 52%
    08:00 +37°C° 0.1 mm 4 mps 753 mmHg 48%
    09:00 +38°C° 0.1 mm 3 mps 753 mmHg 43%
    10:00 +40°C° 0 mm 4 mps 753 mmHg 40%
    11:00 +41°C° 0 mm 4 mps 753 mmHg 37%
    12:00 +42°C° 0 mm 4 mps 752 mmHg 34%
    13:00 +43°C° 0 mm 4 mps 752 mmHg 33%
    14:00 +43°C° 0 mm 3 mps 751 mmHg 31%
    15:00 +44°C° 0 mm 3 mps 750 mmHg 30%
    16:00 +43°C° 0 mm 3 mps 750 mmHg 33%
    17:00 +40°C° 0 mm 3 mps 750 mmHg 36%
    18:00 +39°C° 0 mm 3 mps 751 mmHg 40%
    19:00 +39°C° 0 mm 3 mps 751 mmHg 41%
    20:00 +39°C° 0 mm 3 mps 751 mmHg 42%
    21:00 +39°C° 0 mm 2 mps 752 mmHg 43%
    22:00 +38°C° 0 mm 2 mps 752 mmHg 47%
    23:00 +37°C° 0 mm 2 mps 752 mmHg 52%

    Tomorrow, 19 September, Thursday

    Time Temperature Precipitation Wind Pressure Humidity
    00:00 +36°C° 0 mm 2 mps 752 mmHg 56%
    01:00 +35°C° 0 mm 1 mps 752 mmHg 56%
    02:00 +35°C° 0 mm 1 mps 752 mmHg 55%
    03:00 +33°C° 0 mm 0 mps 751 mmHg 55%
    04:00 +33°C° 0 mm 0 mps 752 mmHg 55%
    05:00 +35°C° 0 mm 1 mps 752 mmHg 56%
    06:00 +35°C° 0 mm 1 mps 753 mmHg 56%
    07:00 +36°C° 0 mm 1 mps 753 mmHg 51%
    08:00 +37°C° 0 mm 1 mps 753 mmHg 46%
    09:00 +39°C° 0 mm 2 mps 754 mmHg 41%
    10:00 +40°C° 0 mm 2 mps 753 mmHg 39%
    11:00 +40°C° 0 mm 2 mps 753 mmHg 37%
    12:00 +41°C° 0 mm 2 mps 752 mmHg 35%
    13:00 +43°C° 0 mm 3 mps 751 mmHg 33%
    14:00 +43°C° 0 mm 3 mps 750 mmHg 32%
    15:00 +43°C° 0 mm 4 mps 750 mmHg 30%
    16:00 +42°C° 0 mm 3 mps 750 mmHg 34%
    17:00 +40°C° 0 mm 3 mps 750 mmHg 38%
    18:00 +40°C° 0 mm 2 mps 750 mmHg 42%
    19:00 +39°C° 0 mm 2 mps 750 mmHg 45%
    20:00 +38°C° 0 mm 2 mps 751 mmHg 47%
    21:00 +37°C° 0 mm 2 mps 751 mmHg 49%
    22:00 +37°C° 0 mm 2 mps 751 mmHg 48%
    23:00 +36°C° 0 mm 1 mps 751 mmHg 48%

    Day after tomorrow, 20 September, Friday

    Time Temperature Precipitation Wind Pressure Humidity
    00:00 +34°C° 0 mm 0 mps 751 mmHg 47%
    01:00 +36°C° 0 mm 1 mps 751 mmHg 46%
    02:00 +36°C° 0 mm 1 mps 751 mmHg 44%
    03:00 +36°C° 0 mm 1 mps 750 mmHg 43%
    04:00 +36°C° 0 mm 1 mps 751 mmHg 44%
    05:00 +35°C° 0 mm 1 mps 751 mmHg 45%
    06:00 +35°C° 0 mm 1 mps 751 mmHg 46%
    07:00 +36°C° 0 mm 1 mps 752 mmHg 44%
    08:00 +37°C° 0 mm 2 mps 752 mmHg 43%
    09:00 +38°C° 0 mm 2 mps 752 mmHg 42%
    10:00 +39°C° 0 mm 2 mps 752 mmHg 41%
    11:00 +40°C° 0 mm 2 mps 751 mmHg 39%
    12:00 +40°C° 0 mm 3 mps 751 mmHg 37%
    13:00 +40°C° 0 mm 3 mps 750 mmHg 37%
    14:00 +40°C° 0 mm 3 mps 749 mmHg 38%
    15:00 +41°C° 0 mm 4 mps 749 mmHg 38%
    16:00 +40°C° 0 mm 3 mps 749 mmHg 42%
    17:00 +39°C° 0 mm 3 mps 749 mmHg 46%
    18:00 +38°C° 0 mm 2 mps 749 mmHg 49%
    19:00 +37°C° 0 mm 2 mps 750 mmHg 52%
    20:00 +37°C° 0 mm 2 mps 750 mmHg 55%
    21:00 +36°C° 0 mm 2 mps 750 mmHg 58%
    22:00 +36°C° 0 mm 2 mps 750 mmHg 58%
    23:00 +36°C° 0 mm 2 mps 750 mmHg 58%

    21 September, Saturday

    Time Temperature Precipitation Wind Pressure Humidity
    00:00 +34°C° 0 mm 1 mps 750 mmHg 58%
    01:00 +34°C° 0 mm 1 mps 750 mmHg 56%
    02:00 +35°C° 0 mm 1 mps 750 mmHg 55%
    03:00 +35°C° 0 mm 1 mps 749 mmHg 53%
    04:00 +34°C° 0 mm 1 mps 750 mmHg 56%
    05:00 +35°C° 0 mm 2 mps 750 mmHg 59%
    06:00 +35°C° 0 mm 2 mps 751 mmHg 62%
    07:00 +35°C° 0 mm 2 mps 751 mmHg 61%
    08:00 +35°C° 0 mm 2 mps 752 mmHg 60%
    09:00 +36°C° 0 mm 2 mps 752 mmHg 59%
    10:00 +37°C° 0 mm 2 mps 752 mmHg 55%
    11:00 +38°C° 0 mm 3 mps 751 mmHg 52%
    12:00 +38°C° 0 mm 3 mps 751 mmHg 49%
    13:00 +38°C° 0.1 mm 3 mps 750 mmHg 51%
    14:00 +38°C° 0.1 mm 3 mps 749 mmHg 52%
    15:00 +38°C° 0.1 mm 4 mps 749 mmHg 54%
    16:00 +38°C° 0.2 mm 4 mps 749 mmHg 48%
    17:00 +38°C° 0.2 mm 4 mps 749 mmHg 41%
    18:00 +39°C° 0.2 mm 5 mps 749 mmHg 34%
    19:00 +38°C° 0 mm 4 mps 749 mmHg 37%
    20:00 +38°C° 0 mm 4 mps 750 mmHg 40%
    21:00 +38°C° 0 mm 4 mps 751 mmHg 43%
    22:00 +37°C° 0 mm 3 mps 751 mmHg 54%
    23:00 +35°C° 0 mm 3 mps 750 mmHg 65%

    22 September, Sunday

    Time Temperature Precipitation Wind Pressure Humidity
    00:00 +32°C° 0 mm 2 mps 750 mmHg 76%
    01:00 +33°C° 0 mm 1 mps 750 mmHg 71%
    02:00 +33°C° 0 mm 1 mps 750 mmHg 67%
    03:00 +32°C° 0 mm 0 mps 750 mmHg 63%
    04:00 +33°C° 0 mm 1 mps 751 mmHg 64%
    05:00 +33°C° 0 mm 1 mps 751 mmHg 65%
    06:00 +33°C° 0 mm 1 mps 751 mmHg 66%
    07:00 +34°C° 0 mm 1 mps 752 mmHg 62%
    08:00 +35°C° 0 mm 1 mps 752 mmHg 58%
    09:00 +35°C° 0 mm 1 mps 753 mmHg 54%
    10:00 +37°C° 0 mm 2 mps 752 mmHg 50%
    11:00 +38°C° 0 mm 2 mps 752 mmHg 45%
    12:00 +39°C° 0 mm 3 mps 751 mmHg 41%
    13:00 +39°C° 0 mm 3 mps 751 mmHg 41%
    14:00 +39°C° 0 mm 3 mps 750 mmHg 41%
    15:00 +40°C° 0 mm 3 mps 750 mmHg 41%
    16:00 +39°C° 0 mm 3 mps 750 mmHg 42%
    17:00 +39°C° 0 mm 3 mps 750 mmHg 42%
    18:00 +38°C° 0 mm 3 mps 750 mmHg 43%
    19:00 +38°C° 0 mm 3 mps 750 mmHg 45%
    20:00 +38°C° 0 mm 2 mps 751 mmHg 48%
    21:00 +37°C° 0 mm 2 mps 751 mmHg 50%
    22:00 +36°C° 0 mm 2 mps 751 mmHg 55%
    23:00 +36°C° 0 mm 2 mps 751 mmHg 60%

    23 September, Monday

    Time Temperature Precipitation Wind Pressure Humidity
    00:00 +35°C° 0 mm 2 mps 751 mmHg 64%
    01:00 +35°C° 0 mm 2 mps 751 mmHg 65%
    02:00 +34°C° 0 mm 2 mps 751 mmHg 66%
    03:00 +33°C° 0 mm 1 mps 751 mmHg 67%
    04:00 +33°C° 0 mm 1 mps 751 mmHg 65%
    05:00 +33°C° 0 mm 1 mps 752 mmHg 64%
    06:00 +31°C° 0 mm 0 mps 752 mmHg 63%
    07:00 +34°C° 0 mm 1 mps 753 mmHg 57%
    08:00 +35°C° 0 mm 1 mps 753 mmHg 51%
    09:00 +37°C° 0 mm 1 mps 754 mmHg 46%
    10:00 +37°C° 0 mm 1 mps 753 mmHg 44%
    11:00 +39°C° 0 mm 2 mps 752 mmHg 42%
    12:00 +40°C° 0 mm 2 mps 752 mmHg 40%
    13:00 +40°C° 0 mm 3 mps 751 mmHg 39%
    14:00 +40°C° 0 mm 3 mps 750 mmHg 39%
    15:00 +41°C° 0 mm 4 mps 750 mmHg 38%
    16:00 +40°C° 0 mm 3 mps 750 mmHg 39%
    17:00 +39°C° 0 mm 3 mps 750 mmHg 40%
    18:00 +39°C° 0 mm 2 mps 750 mmHg 41%
    19:00 +39°C° 0 mm 2 mps 750 mmHg 42%
    20:00 +37°C° 0 mm 1 mps 751 mmHg 43%
    21:00 +37°C° 0 mm 1 mps 751 mmHg 44%
    22:00 +37°C° 0 mm 1 mps 751 mmHg 46%
    23:00 +36°C° 0 mm 1 mps 751 mmHg 48%
    Show more